User: anonymous   Login
Location: Unspecified
(0.0000°N, 0.0000°E)
Time: 05:18:47
(UTC+00:00)
Language:

M3MSAT - Orbit

View from above orbital plane
View from above orbital plane
View from above satellite
View from above satellite

Ground track
Ground track

The orbit data is extracted from the following two-line orbital elements,

1 41605U 16040G   18344.17970779  .00000454  00000-0  23646-4 0  9992
2 41605  97.3921  43.5451 0011940 353.3685   6.7391 15.20866521136887
Epoch (UTC): 10 December 2018 04:18:46
Eccentricity: 0.0011940
inclination: 97.3921°
perigee height: 495 km
apogee height: 511 km
right ascension of ascending node: 43.5451°
argument of perigee: 353.3685°
revolutions per day: 15.20866521
mean anomaly at epoch: 6.7391°
orbit number at epoch: 13688

The dashed part of the orbit path shows where the satellite is in the earth's shadow,  

DLR